TimeEDT,TemperatureF,Dew PointF,Humidity,Sea Level PressureIn,VisibilityMPH,Wind Direction,Wind SpeedMPH,Gust SpeedMPH,PrecipitationIn,Events,Conditions,WindDirDegrees,DateUTC
12:51 AM,36.0,26.1,67,30.21,10.0,NE,9.2,-,N/A,,Clear,50,2014-04-03 04:51:00
1:51 AM,36.0,26.1,67,30.22,10.0,ENE,13.8,-,N/A,,Clear,60,2014-04-03 05:51:00
2:51 AM,36.0,24.1,62,30.20,10.0,ENE,10.4,-,N/A,,Overcast,60,2014-04-03 06:51:00
3:51 AM,36.0,26.1,67,30.19,10.0,ENE,13.8,-,N/A,,Overcast,60,2014-04-03 07:51:00
4:51 AM,33.1,25.0,72,30.18,10.0,NE,8.1,-,N/A,,Clear,50,2014-04-03 08:51:00
5:51 AM,32.0,25.0,75,30.19,10.0,ENE,6.9,-,N/A,,Clear,60,2014-04-03 09:51:00
6:51 AM,33.1,25.0,72,30.18,10.0,ENE,8.1,-,N/A,,Overcast,60,2014-04-03 10:51:00
7:51 AM,34.0,24.1,67,30.18,10.0,ENE,5.8,-,N/A,,Overcast,60,2014-04-03 11:51:00
8:51 AM,36.0,26.1,67,30.18,10.0,ENE,9.2,-,N/A,,Mostly Cloudy,60,2014-04-03 12:51:00
9:51 AM,39.0,26.1,60,30.17,10.0,NNE,9.2,-,N/A,,Clear,30,2014-04-03 13:51:00
10:51 AM,39.9,26.1,58,30.14,10.0,NE,11.5,-,N/A,,Clear,40,2014-04-03 14:51:00
11:51 AM,37.9,26.1,62,30.14,10.0,NE,11.5,-,N/A,,Clear,40,2014-04-03 15:51:00
12:51 PM,39.0,27.0,62,30.10,10.0,ENE,13.8,-,N/A,,Clear,60,2014-04-03 16:51:00
1:51 PM,37.4,26.6,65,30.06,10.0,NE,11.5,-,N/A,,Clear,40,2014-04-03 17:51:00
2:51 PM,37.9,26.1,62,30.02,10.0,NE,17.3,-,N/A,,Overcast,50,2014-04-03 18:51:00
3:51 PM,39.0,27.0,62,29.99,10.0,NE,10.4,-,N/A,,Overcast,40,2014-04-03 19:51:00
4:51 PM,37.0,30.9,79,30.01,5.0,ENE,13.8,-,0.03,Rain,Light Rain,60,2014-04-03 20:51:00
5:51 PM,37.0,32.0,82,29.98,7.0,NE,12.7,-,0.03,Rain,Light Rain,50,2014-04-03 21:51:00
6:51 PM,39.0,34.0,82,29.94,10.0,ENE,12.7,-,0.00,Rain,Light Rain,70,2014-04-03 22:51:00
7:51 PM,37.0,32.0,82,29.93,10.0,NE,11.5,-,0.01,Rain,Light Rain,50,2014-04-03 23:51:00
8:51 PM,37.9,34.0,86,29.93,7.0,ENE,10.4,-,0.02,Rain,Light Rain,70,2014-04-04 00:51:00
9:51 PM,36.0,32.0,86,29.91,6.0,NE,10.4,-,0.01,Rain,Light Rain,40,2014-04-04 01:51:00
10:10 PM,35.6,32.0,87,29.89,6.0,NE,11.5,-,0.00,,Overcast,50,2014-04-04 02:10:00
10:51 PM,36.0,32.0,86,29.90,5.0,NE,9.2,-,0.00,,Overcast,40,2014-04-04 02:51:00
11:51 PM,35.1,32.0,89,29.88,6.0,ENE,10.4,-,N/A,,Overcast,60,2014-04-04 03:51:00